Year,Month,Day,Hour,Minute,Value (Times are PST for windspeed in km/hr)
2010,11,21,00,00,0.40
2010,11,21,00,01,3.10
2010,11,21,00,02,2.20
2010,11,21,00,03,1.50
2010,11,21,00,04,1.40
2010,11,21,00,05,1.90
2010,11,21,00,06,3.90
2010,11,21,00,07,5.00
2010,11,21,00,08,3.50
2010,11,21,00,09,4.30
2010,11,21,00,10,2.00
2010,11,21,00,11,0.10
2010,11,21,00,12,0.50
2010,11,21,00,13,3.60
2010,11,21,00,14,3.40
2010,11,21,00,15,1.40
2010,11,21,00,16,2.20
2010,11,21,00,17,1.10
2010,11,21,00,18,2.00
2010,11,21,00,19,0.30
2010,11,21,00,20,2.40
2010,11,21,00,21,1.00
2010,11,21,00,22,1.20
2010,11,21,00,23,2.30
2010,11,21,00,24,3.40
2010,11,21,00,25,2.30
2010,11,21,00,26,2.00
2010,11,21,00,27,2.50
2010,11,21,00,28,3.10
2010,11,21,00,29,2.20
2010,11,21,00,30,3.30
2010,11,21,00,31,3.70
2010,11,21,00,32,1.80
2010,11,21,00,33,2.20
2010,11,21,00,34,3.60
2010,11,21,00,35,4.20
2010,11,21,00,36,4.10
2010,11,21,00,37,1.90
2010,11,21,00,38,3.20
2010,11,21,00,39,4.10
2010,11,21,00,40,4.00
2010,11,21,00,41,3.90
2010,11,21,00,42,3.40
2010,11,21,00,43,3.80
2010,11,21,00,44,2.90
2010,11,21,00,45,3.50
2010,11,21,00,46,3.70
2010,11,21,00,47,2.90
2010,11,21,00,48,1.40
2010,11,21,00,49,4.10
2010,11,21,00,50,4.00
2010,11,21,00,51,0.50
2010,11,21,00,52,0.50
2010,11,21,00,53,3.10
2010,11,21,00,54,2.80
2010,11,21,00,55,2.50
2010,11,21,00,56,2.50
2010,11,21,00,57,1.20
2010,11,21,00,58,1.50
2010,11,21,00,59,1.40
2010,11,21,01,00,1.80
2010,11,21,01,01,2.40
2010,11,21,01,02,3.70
2010,11,21,01,03,2.70
2010,11,21,01,04,2.00
2010,11,21,01,05,2.70
2010,11,21,01,06,2.40
2010,11,21,01,07,2.80
2010,11,21,01,08,4.10
2010,11,21,01,09,3.80
2010,11,21,01,10,2.20
2010,11,21,01,11,3.60
2010,11,21,01,12,4.70
2010,11,21,01,13,4.70
2010,11,21,01,14,3.80
2010,11,21,01,15,3.10
2010,11,21,01,16,3.60
2010,11,21,01,17,3.40
2010,11,21,01,18,2.40
2010,11,21,01,19,3.50
2010,11,21,01,20,3.80
2010,11,21,01,21,3.80
2010,11,21,01,22,5.40
2010,11,21,01,23,2.50
2010,11,21,01,24,0.20
2010,11,21,01,25,0.00
2010,11,21,01,26,0.80
2010,11,21,01,27,1.40
2010,11,21,01,28,0.10
2010,11,21,01,29,1.20
2010,11,21,01,30,4.50
2010,11,21,01,31,2.80
2010,11,21,01,32,0.10
2010,11,21,01,33,1.90
2010,11,21,01,34,3.90
2010,11,21,01,35,0.80
2010,11,21,01,36,0.30
2010,11,21,01,37,0.90
2010,11,21,01,38,2.40
2010,11,21,01,39,3.60
2010,11,21,01,40,3.00
2010,11,21,01,41,1.80
2010,11,21,01,42,1.50
2010,11,21,01,43,2.00
2010,11,21,01,44,4.20
2010,11,21,01,45,1.40
2010,11,21,01,46,3.20
2010,11,21,01,47,1.90
2010,11,21,01,48,2.10
2010,11,21,01,49,0.60
2010,11,21,01,50,1.00
2010,11,21,01,51,0.80
2010,11,21,01,52,0.80
2010,11,21,01,53,1.10
2010,11,21,01,54,1.70
2010,11,21,01,55,3.00
2010,11,21,01,56,1.70
2010,11,21,01,57,2.10
2010,11,21,01,58,3.10
2010,11,21,01,59,1.90
2010,11,21,02,00,1.50
2010,11,21,02,01,0.60
2010,11,21,02,02,2.70
2010,11,21,02,03,1.30
2010,11,21,02,04,0.30
2010,11,21,02,05,0.10
2010,11,21,02,06,0.20
2010,11,21,02,07,0.00
2010,11,21,02,08,0.00
2010,11,21,02,09,0.00
2010,11,21,02,10,0.00
2010,11,21,02,11,0.10
2010,11,21,02,12,2.40
2010,11,21,02,13,2.60
2010,11,21,02,14,3.20
2010,11,21,02,15,0.00
2010,11,21,02,16,1.40
2010,11,21,02,17,2.10
2010,11,21,02,18,0.30
2010,11,21,02,19,0.00
2010,11,21,02,20,0.00
2010,11,21,02,21,0.20
2010,11,21,02,22,0.00
2010,11,21,02,23,3.40
2010,11,21,02,24,1.30
2010,11,21,02,25,0.20
2010,11,21,02,26,4.40
2010,11,21,02,27,9.30
2010,11,21,02,28,7.80
2010,11,21,02,29,8.00
2010,11,21,02,30,4.30
2010,11,21,02,31,2.60
2010,11,21,02,32,1.30
2010,11,21,02,33,0.80
2010,11,21,02,34,0.90
2010,11,21,02,35,2.50
2010,11,21,02,36,2.40
2010,11,21,02,37,0.80
2010,11,21,02,38,0.00
2010,11,21,02,39,0.00
2010,11,21,02,40,0.30
2010,11,21,02,41,2.30
2010,11,21,02,42,3.20
2010,11,21,02,43,0.80
2010,11,21,02,44,1.50
2010,11,21,02,45,6.40
2010,11,21,02,46,6.30
2010,11,21,02,47,10.30
2010,11,21,02,48,4.90
2010,11,21,02,49,5.30
2010,11,21,02,50,4.70
2010,11,21,02,51,0.60
2010,11,21,02,52,2.70
2010,11,21,02,53,4.20
2010,11,21,02,54,3.10
2010,11,21,02,55,2.40
2010,11,21,02,56,1.60
2010,11,21,02,57,7.60
2010,11,21,02,58,7.30
2010,11,21,02,59,5.50
2010,11,21,03,00,5.70
2010,11,21,03,01,4.00
2010,11,21,03,02,6.80
2010,11,21,03,03,3.50
2010,11,21,03,04,3.80
2010,11,21,03,05,3.30
2010,11,21,03,06,6.60
2010,11,21,03,07,6.70
2010,11,21,03,08,7.40
2010,11,21,03,09,9.40
2010,11,21,03,10,9.50
2010,11,21,03,11,6.20
2010,11,21,03,12,3.60
2010,11,21,03,13,0.80
2010,11,21,03,14,5.70
2010,11,21,03,15,3.10
2010,11,21,03,16,2.40
2010,11,21,03,17,2.90
2010,11,21,03,18,5.30
2010,11,21,03,19,5.90
2010,11,21,03,20,6.30
2010,11,21,03,21,3.70
2010,11,21,03,22,4.70
2010,11,21,03,23,2.80
2010,11,21,03,24,2.60
2010,11,21,03,25,4.70
2010,11,21,03,26,3.10
2010,11,21,03,27,2.00
2010,11,21,03,28,1.40
2010,11,21,03,29,0.00
2010,11,21,03,30,0.00
2010,11,21,03,31,1.20
2010,11,21,03,32,3.50
2010,11,21,03,33,1.60
2010,11,21,03,34,2.70
2010,11,21,03,35,2.70
2010,11,21,03,36,1.60
2010,11,21,03,37,2.40
2010,11,21,03,38,2.40
2010,11,21,03,39,1.90
2010,11,21,03,40,3.80
2010,11,21,03,41,3.90
2010,11,21,03,42,6.60
2010,11,21,03,43,5.30
2010,11,21,03,44,3.40
2010,11,21,03,45,4.80
2010,11,21,03,46,5.70
2010,11,21,03,47,2.50
2010,11,21,03,48,3.50
2010,11,21,03,49,5.40
2010,11,21,03,50,6.00
2010,11,21,03,51,2.60
2010,11,21,03,52,2.40
2010,11,21,03,53,4.00
2010,11,21,03,54,4.10
2010,11,21,03,55,3.60
2010,11,21,03,56,1.90
2010,11,21,03,57,6.10
2010,11,21,03,58,4.90
2010,11,21,03,59,4.50
2010,11,21,04,00,3.60
2010,11,21,04,01,7.00
2010,11,21,04,02,3.10
2010,11,21,04,03,3.60
2010,11,21,04,04,2.00
2010,11,21,04,05,1.20
2010,11,21,04,06,2.30
2010,11,21,04,07,0.90
2010,11,21,04,08,2.60
2010,11,21,04,09,1.10
2010,11,21,04,10,2.10
2010,11,21,04,11,5.40
2010,11,21,04,12,1.80
2010,11,21,04,13,3.10
2010,11,21,04,14,4.50
2010,11,21,04,15,3.30
2010,11,21,04,16,5.60
2010,11,21,04,17,4.40
2010,11,21,04,18,5.30
2010,11,21,04,19,5.20
2010,11,21,04,20,4.50
2010,11,21,04,21,4.30
2010,11,21,04,22,6.30
2010,11,21,04,23,5.90
2010,11,21,04,24,1.40
2010,11,21,04,25,4.10
2010,11,21,04,26,4.20
2010,11,21,04,27,4.50
2010,11,21,04,28,3.70
2010,11,21,04,29,2.40
2010,11,21,04,30,1.70
2010,11,21,04,31,0.90
2010,11,21,04,32,3.20
2010,11,21,04,33,4.40
2010,11,21,04,34,3.10
2010,11,21,04,35,6.70
2010,11,21,04,36,10.70
2010,11,21,04,37,9.60
2010,11,21,04,38,6.90
2010,11,21,04,39,6.40
2010,11,21,04,40,9.70
2010,11,21,04,41,7.30
2010,11,21,04,42,6.20
2010,11,21,04,43,10.20
2010,11,21,04,44,8.20
2010,11,21,04,45,12.40
2010,11,21,04,46,8.40
2010,11,21,04,47,7.10
2010,11,21,04,48,9.50
2010,11,21,04,49,7.20
2010,11,21,04,50,8.10
2010,11,21,04,51,13.50
2010,11,21,04,52,11.80
2010,11,21,04,53,8.30
2010,11,21,04,54,6.80
2010,11,21,04,55,5.20
2010,11,21,04,56,8.80
2010,11,21,04,57,5.30
2010,11,21,04,58,6.50
2010,11,21,04,59,9.70
2010,11,21,05,00,9.70
2010,11,21,05,01,10.00
2010,11,21,05,02,5.60
2010,11,21,05,03,6.90
2010,11,21,05,04,7.00
2010,11,21,05,05,14.60
2010,11,21,05,06,9.50
2010,11,21,05,07,12.20
2010,11,21,05,08,10.30
2010,11,21,05,09,7.30
2010,11,21,05,10,11.60
2010,11,21,05,11,10.50
2010,11,21,05,12,8.20
2010,11,21,05,13,8.30
2010,11,21,05,14,11.70
2010,11,21,05,15,6.00
2010,11,21,05,16,5.40
2010,11,21,05,17,6.40
2010,11,21,05,18,12.20
2010,11,21,05,19,11.40
2010,11,21,05,20,6.70
2010,11,21,05,21,6.50
2010,11,21,05,22,5.60
2010,11,21,05,23,6.30
2010,11,21,05,24,8.40
2010,11,21,05,25,8.10
2010,11,21,05,26,3.00
2010,11,21,05,27,6.60
2010,11,21,05,28,7.80
2010,11,21,05,29,6.40
2010,11,21,05,30,8.70
2010,11,21,05,31,7.20
2010,11,21,05,32,7.10
2010,11,21,05,33,6.20
2010,11,21,05,34,6.20
2010,11,21,05,35,4.30
2010,11,21,05,36,8.00
2010,11,21,05,37,7.20
2010,11,21,05,38,13.00
2010,11,21,05,39,9.90
2010,11,21,05,40,9.30
2010,11,21,05,41,7.20
2010,11,21,05,42,8.10
2010,11,21,05,43,3.70
2010,11,21,05,44,5.80
2010,11,21,05,45,7.80
2010,11,21,05,46,9.70
2010,11,21,05,47,9.40
2010,11,21,05,48,7.40
2010,11,21,05,49,8.40
2010,11,21,05,50,8.60
2010,11,21,05,51,8.80
2010,11,21,05,52,7.60
2010,11,21,05,53,9.40
2010,11,21,05,54,10.20
2010,11,21,05,55,7.20
2010,11,21,05,56,5.60
2010,11,21,05,57,9.70
2010,11,21,05,58,5.00
2010,11,21,05,59,8.30
2010,11,21,06,00,9.60
2010,11,21,06,01,8.10
2010,11,21,06,02,9.00
2010,11,21,06,03,7.90
2010,11,21,06,04,4.00
2010,11,21,06,05,5.50
2010,11,21,06,06,7.00
2010,11,21,06,07,12.90
2010,11,21,06,08,14.90
2010,11,21,06,09,12.50
2010,11,21,06,10,8.80
2010,11,21,06,11,17.80
2010,11,21,06,12,12.00
2010,11,21,06,13,11.50
2010,11,21,06,14,9.50
2010,11,21,06,15,13.00
2010,11,21,06,16,7.60
2010,11,21,06,17,10.30
2010,11,21,06,18,6.80
2010,11,21,06,19,7.20
2010,11,21,06,20,11.00
2010,11,21,06,21,6.80
2010,11,21,06,22,6.00
2010,11,21,06,23,6.40
2010,11,21,06,24,6.40
2010,11,21,06,25,9.00
2010,11,21,06,26,9.30
2010,11,21,06,27,7.70
2010,11,21,06,28,11.30
2010,11,21,06,29,7.10
2010,11,21,06,30,4.30
2010,11,21,06,31,4.90
2010,11,21,06,32,4.50
2010,11,21,06,33,9.10
2010,11,21,06,34,9.50
2010,11,21,06,35,10.00
2010,11,21,06,36,9.40
2010,11,21,06,37,5.30
2010,11,21,06,38,4.70
2010,11,21,06,39,4.20
2010,11,21,06,40,10.10
2010,11,21,06,41,6.40
2010,11,21,06,42,6.40
2010,11,21,06,43,6.00
2010,11,21,06,44,3.60
2010,11,21,06,45,6.00
2010,11,21,06,46,3.90
2010,11,21,06,47,7.20
2010,11,21,06,48,6.50
2010,11,21,06,49,10.30
2010,11,21,06,50,11.20
2010,11,21,06,51,7.80
2010,11,21,06,52,8.90
2010,11,21,06,53,3.60
2010,11,21,06,54,3.90
2010,11,21,06,55,5.80
2010,11,21,06,56,6.80
2010,11,21,06,57,7.50
2010,11,21,06,58,8.10
2010,11,21,06,59,5.70
2010,11,21,07,00,4.60
2010,11,21,07,01,5.20
2010,11,21,07,02,5.60
2010,11,21,07,03,5.80
2010,11,21,07,04,7.10
2010,11,21,07,05,7.30
2010,11,21,07,06,8.10
2010,11,21,07,07,6.30
2010,11,21,07,08,8.00
2010,11,21,07,09,7.10
2010,11,21,07,10,5.80
2010,11,21,07,11,6.40
2010,11,21,07,12,7.20
2010,11,21,07,13,12.70
2010,11,21,07,14,12.10
2010,11,21,07,15,11.20
2010,11,21,07,16,8.50
2010,11,21,07,17,8.70
2010,11,21,07,18,8.30
2010,11,21,07,19,9.20
2010,11,21,07,20,8.50
2010,11,21,07,21,5.30
2010,11,21,07,22,6.60
2010,11,21,07,23,9.40
2010,11,21,07,24,7.60
2010,11,21,07,25,9.80
2010,11,21,07,26,8.70
2010,11,21,07,27,6.90
2010,11,21,07,28,6.40
2010,11,21,07,29,5.50
2010,11,21,07,30,3.20
2010,11,21,07,31,0.50
2010,11,21,07,32,2.70
2010,11,21,07,33,0.20
2010,11,21,07,34,0.60
2010,11,21,07,35,0.30
2010,11,21,07,36,0.10
2010,11,21,07,37,1.70
2010,11,21,07,38,1.30
2010,11,21,07,39,0.30
2010,11,21,07,40,1.10
2010,11,21,07,41,3.10
2010,11,21,07,42,1.80
2010,11,21,07,43,2.10
2010,11,21,07,44,3.40
2010,11,21,07,45,2.70
2010,11,21,07,46,2.40
2010,11,21,07,47,4.10
2010,11,21,07,48,4.10
2010,11,21,07,49,2.50
2010,11,21,07,50,0.10
2010,11,21,07,51,0.60
2010,11,21,07,52,0.20
2010,11,21,07,53,0.00
2010,11,21,07,54,0.00
2010,11,21,07,55,0.20
2010,11,21,07,56,1.50
2010,11,21,07,57,0.60
2010,11,21,07,58,0.70
2010,11,21,07,59,0.20
2010,11,21,08,00,0.20
2010,11,21,08,01,0.00
2010,11,21,08,02,0.10
2010,11,21,08,03,0.00
2010,11,21,08,04,0.00
2010,11,21,08,05,0.20
2010,11,21,08,06,0.00
2010,11,21,08,07,0.00
2010,11,21,08,08,0.20
2010,11,21,08,09,0.00
2010,11,21,08,10,0.00
2010,11,21,08,11,0.00
2010,11,21,08,12,0.90
2010,11,21,08,13,1.90
2010,11,21,08,14,1.90
2010,11,21,08,15,2.60
2010,11,21,08,16,5.90
2010,11,21,08,17,7.80
2010,11,21,08,18,3.90
2010,11,21,08,19,5.20
2010,11,21,08,20,10.90
2010,11,21,08,21,7.20
2010,11,21,08,22,3.90
2010,11,21,08,23,7.50
2010,11,21,08,24,8.10
2010,11,21,08,25,5.40
2010,11,21,08,26,3.90
2010,11,21,08,27,6.60
2010,11,21,08,28,7.30
2010,11,21,08,29,7.80
2010,11,21,08,30,9.10
2010,11,21,08,31,12.60
2010,11,21,08,32,11.80
2010,11,21,08,33,8.90
2010,11,21,08,34,7.00
2010,11,21,08,35,6.70
2010,11,21,08,36,7.50
2010,11,21,08,37,10.30
2010,11,21,08,38,4.70
2010,11,21,08,39,7.20
2010,11,21,08,40,8.00
2010,11,21,08,41,7.00
2010,11,21,08,42,8.60
2010,11,21,08,43,7.10
2010,11,21,08,44,10.90
2010,11,21,08,45,12.20
2010,11,21,08,46,11.70
2010,11,21,08,47,16.30
2010,11,21,08,48,14.80
2010,11,21,08,49,6.80
2010,11,21,08,50,7.20
2010,11,21,08,51,12.70
2010,11,21,08,52,13.20
2010,11,21,08,53,11.30
2010,11,21,08,54,8.50
2010,11,21,08,55,8.10
2010,11,21,08,56,8.80
2010,11,21,08,57,8.60
2010,11,21,08,58,7.40
2010,11,21,08,59,6.40
2010,11,21,09,00,5.80
2010,11,21,09,01,10.00
2010,11,21,09,02,7.10
2010,11,21,09,03,11.80
2010,11,21,09,04,9.40
2010,11,21,09,05,10.70
2010,11,21,09,06,10.00
2010,11,21,09,07,13.90
2010,11,21,09,08,10.70
2010,11,21,09,09,5.10
2010,11,21,09,10,4.30
2010,11,21,09,11,10.60
2010,11,21,09,12,15.70
2010,11,21,09,13,12.00
2010,11,21,09,14,7.70
2010,11,21,09,15,9.50
2010,11,21,09,16,5.90
2010,11,21,09,17,8.10
2010,11,21,09,18,9.20
2010,11,21,09,19,9.30
2010,11,21,09,20,13.90
2010,11,21,09,21,7.60
2010,11,21,09,22,12.50
2010,11,21,09,23,11.70
2010,11,21,09,24,10.90
2010,11,21,09,25,10.50
2010,11,21,09,26,10.30
2010,11,21,09,27,14.00
2010,11,21,09,28,12.20
2010,11,21,09,29,12.50
2010,11,21,09,30,12.50
2010,11,21,09,31,12.60
2010,11,21,09,32,13.00
2010,11,21,09,33,12.90
2010,11,21,09,34,14.60
2010,11,21,09,35,15.40
2010,11,21,09,36,12.30
2010,11,21,09,37,14.20
2010,11,21,09,38,12.40
2010,11,21,09,39,8.50
2010,11,21,09,40,19.90
2010,11,21,09,41,22.00
2010,11,21,09,42,12.60
2010,11,21,09,43,15.70
2010,11,21,09,44,11.50
2010,11,21,09,45,14.00
2010,11,21,09,46,15.20
2010,11,21,09,47,20.10
2010,11,21,09,48,16.70
2010,11,21,09,49,10.80
2010,11,21,09,50,13.00
2010,11,21,09,51,16.40
2010,11,21,09,52,13.30
2010,11,21,09,53,14.00
2010,11,21,09,54,9.70
2010,11,21,09,55,6.30
2010,11,21,09,56,16.60
2010,11,21,09,57,17.60
2010,11,21,09,58,17.60
2010,11,21,09,59,17.30
2010,11,21,10,00,9.30
2010,11,21,10,01,13.10
2010,11,21,10,02,10.90
2010,11,21,10,03,9.70
2010,11,21,10,04,10.30
2010,11,21,10,05,14.80
2010,11,21,10,06,12.20
2010,11,21,10,07,11.30
2010,11,21,10,08,14.10
2010,11,21,10,09,5.80
2010,11,21,10,10,12.20
2010,11,21,10,11,11.80
2010,11,21,10,12,10.50
2010,11,21,10,13,10.10
2010,11,21,10,14,9.20
2010,11,21,10,15,9.00
2010,11,21,10,16,14.10
2010,11,21,10,17,17.80
2010,11,21,10,18,10.80
2010,11,21,10,19,8.90
2010,11,21,10,20,8.00
2010,11,21,10,21,16.90
2010,11,21,10,22,16.70
2010,11,21,10,23,16.70
2010,11,21,10,24,14.70
2010,11,21,10,25,11.10
2010,11,21,10,26,9.20
2010,11,21,10,27,8.40
2010,11,21,10,28,11.90
2010,11,21,10,29,17.30
2010,11,21,10,30,15.20
2010,11,21,10,31,14.60
2010,11,21,10,32,17.70
2010,11,21,10,33,22.50
2010,11,21,10,34,20.60
2010,11,21,10,35,18.50
2010,11,21,10,36,20.10
2010,11,21,10,37,19.20
2010,11,21,10,38,16.10
2010,11,21,10,39,21.20
2010,11,21,10,40,12.20
2010,11,21,10,41,17.00
2010,11,21,10,42,11.90
2010,11,21,10,43,16.30
2010,11,21,10,44,17.20
2010,11,21,10,45,13.80
2010,11,21,10,46,10.30
2010,11,21,10,47,13.80
2010,11,21,10,48,17.90
2010,11,21,10,49,20.20
2010,11,21,10,50,26.90
2010,11,21,10,51,20.90
2010,11,21,10,52,18.90
2010,11,21,10,53,16.30
2010,11,21,10,54,13.50
2010,11,21,10,55,18.30
2010,11,21,10,56,16.70
2010,11,21,10,57,10.90
2010,11,21,10,58,11.00
2010,11,21,10,59,17.50
2010,11,21,11,00,16.00
2010,11,21,11,01,20.30
2010,11,21,11,02,17.90
2010,11,21,11,03,13.80
2010,11,21,11,04,15.20
2010,11,21,11,05,16.40
2010,11,21,11,06,24.40
2010,11,21,11,07,19.60
2010,11,21,11,08,13.90
2010,11,21,11,09,17.10
2010,11,21,11,10,18.80
2010,11,21,11,11,21.10
2010,11,21,11,12,22.40
2010,11,21,11,13,20.20
2010,11,21,11,14,14.30
2010,11,21,11,15,19.50
2010,11,21,11,16,17.90
2010,11,21,11,17,13.00
2010,11,21,11,18,19.30
2010,11,21,11,19,19.10
2010,11,21,11,20,21.40
2010,11,21,11,21,18.60
2010,11,21,11,22,16.90
2010,11,21,11,23,15.90
2010,11,21,11,24,16.10
2010,11,21,11,25,11.70
2010,11,21,11,26,19.50
2010,11,21,11,27,11.70
2010,11,21,11,28,10.90
2010,11,21,11,29,12.60
2010,11,21,11,30,8.90
2010,11,21,11,31,11.30
2010,11,21,11,32,22.10
2010,11,21,11,33,21.50
2010,11,21,11,34,18.20
2010,11,21,11,35,17.70
2010,11,21,11,36,16.30
2010,11,21,11,37,20.30
2010,11,21,11,38,21.30
2010,11,21,11,39,14.10
2010,11,21,11,40,18.70
2010,11,21,11,41,12.10
2010,11,21,11,42,8.50
2010,11,21,11,43,10.30
2010,11,21,11,44,18.30
2010,11,21,11,45,22.70
2010,11,21,11,46,13.80
2010,11,21,11,47,15.30
2010,11,21,11,48,15.50
2010,11,21,11,49,11.40
2010,11,21,11,50,20.60
2010,11,21,11,51,13.40
2010,11,21,11,52,13.10
2010,11,21,11,53,11.70
2010,11,21,11,54,10.60
2010,11,21,11,55,13.60
2010,11,21,11,56,10.50
2010,11,21,11,57,12.80
2010,11,21,11,58,13.70
2010,11,21,11,59,17.10
2010,11,21,12,00,24.30
2010,11,21,12,01,23.40
2010,11,21,12,02,17.70
2010,11,21,12,03,20.40
2010,11,21,12,04,21.30
2010,11,21,12,05,22.30
2010,11,21,12,06,12.30
2010,11,21,12,07,17.90
2010,11,21,12,08,28.30
2010,11,21,12,09,14.20
2010,11,21,12,10,18.60
2010,11,21,12,11,18.10
2010,11,21,12,12,16.90
2010,11,21,12,13,18.40
2010,11,21,12,14,22.10
2010,11,21,12,15,14.50
2010,11,21,12,16,16.10
2010,11,21,12,17,20.50
2010,11,21,12,18,23.00
2010,11,21,12,19,19.00
2010,11,21,12,20,17.70
2010,11,21,12,21,17.60
2010,11,21,12,22,19.60
2010,11,21,12,23,20.30
2010,11,21,12,24,15.70
2010,11,21,12,25,20.10
2010,11,21,12,26,15.80
2010,11,21,12,27,10.00
2010,11,21,12,28,11.20
2010,11,21,12,29,16.90
2010,11,21,12,30,15.20
2010,11,21,12,31,21.20
2010,11,21,12,32,14.80
2010,11,21,12,33,20.80
2010,11,21,12,34,16.30
2010,11,21,12,35,16.50
2010,11,21,12,36,14.40
2010,11,21,12,37,14.40
2010,11,21,12,38,5.30
2010,11,21,12,39,14.00
2010,11,21,12,40,15.10
2010,11,21,12,41,11.80
2010,11,21,12,42,13.00
2010,11,21,12,43,14.50
2010,11,21,12,44,11.70
2010,11,21,12,45,12.60
2010,11,21,12,46,17.00
2010,11,21,12,47,20.10
2010,11,21,12,48,19.00
2010,11,21,12,49,19.60
2010,11,21,12,50,19.10
2010,11,21,12,51,20.20
2010,11,21,12,52,12.50
2010,11,21,12,53,14.80
2010,11,21,12,54,16.50
2010,11,21,12,55,18.30
2010,11,21,12,56,19.10
2010,11,21,12,57,17.20
2010,11,21,12,58,19.10
2010,11,21,12,59,15.10
2010,11,21,13,00,15.20
2010,11,21,13,01,15.70
2010,11,21,13,02,17.90
2010,11,21,13,03,20.00
2010,11,21,13,04,13.50
2010,11,21,13,05,17.20
2010,11,21,13,06,12.00
2010,11,21,13,07,8.90
2010,11,21,13,08,16.70
2010,11,21,13,09,18.60
2010,11,21,13,10,16.30
2010,11,21,13,11,14.50
2010,11,21,13,12,19.60
2010,11,21,13,13,11.40
2010,11,21,13,14,19.00
2010,11,21,13,15,17.90
2010,11,21,13,16,17.20
2010,11,21,13,17,15.70
2010,11,21,13,18,12.60
2010,11,21,13,19,15.50
2010,11,21,13,20,19.40
2010,11,21,13,21,19.80
2010,11,21,13,22,18.00
2010,11,21,13,23,18.60
2010,11,21,13,24,22.00
2010,11,21,13,25,18.60
2010,11,21,13,26,16.20
2010,11,21,13,27,19.10
2010,11,21,13,28,14.50
2010,11,21,13,29,12.20
2010,11,21,13,30,13.80
2010,11,21,13,31,19.90
2010,11,21,13,32,15.20
2010,11,21,13,33,17.30
2010,11,21,13,34,11.50
2010,11,21,13,35,18.10
2010,11,21,13,36,19.00
2010,11,21,13,37,21.10
2010,11,21,13,38,11.90
2010,11,21,13,39,18.50
2010,11,21,13,40,14.40
2010,11,21,13,41,15.10
2010,11,21,13,42,17.10
2010,11,21,13,43,21.50
2010,11,21,13,44,21.00
2010,11,21,13,45,11.80
2010,11,21,13,46,20.20
2010,11,21,13,47,21.40
2010,11,21,13,48,19.10
2010,11,21,13,49,14.70
2010,11,21,13,50,24.40
2010,11,21,13,51,20.10
2010,11,21,13,52,20.40
2010,11,21,13,53,20.00
2010,11,21,13,54,20.00
2010,11,21,13,55,23.80
2010,11,21,13,56,16.40
2010,11,21,13,57,15.50
2010,11,21,13,58,20.70
2010,11,21,13,59,19.80
2010,11,21,14,00,18.50
2010,11,21,14,01,16.70
2010,11,21,14,02,17.80
2010,11,21,14,03,14.10
2010,11,21,14,04,10.80
2010,11,21,14,05,13.00
2010,11,21,14,06,18.70
2010,11,21,14,07,15.70
2010,11,21,14,08,12.90
2010,11,21,14,09,19.10
2010,11,21,14,10,20.40
2010,11,21,14,11,14.70
2010,11,21,14,12,15.00
2010,11,21,14,13,19.90
2010,11,21,14,14,15.40
2010,11,21,14,15,14.20
2010,11,21,14,16,13.70
2010,11,21,14,17,15.80
2010,11,21,14,18,23.10
2010,11,21,14,19,16.90
2010,11,21,14,20,20.20
2010,11,21,14,21,17.20
2010,11,21,14,22,16.50
2010,11,21,14,23,18.50
2010,11,21,14,24,16.70
2010,11,21,14,25,14.70
2010,11,21,14,26,11.80
2010,11,21,14,27,8.10
2010,11,21,14,28,12.50
2010,11,21,14,29,16.80
2010,11,21,14,30,12.40
2010,11,21,14,31,15.10
2010,11,21,14,32,9.90
2010,11,21,14,33,9.10
2010,11,21,14,34,9.70
2010,11,21,14,35,8.90
2010,11,21,14,36,12.90
2010,11,21,14,37,13.80
2010,11,21,14,38,21.20
2010,11,21,14,39,14.20
2010,11,21,14,40,15.50
2010,11,21,14,41,16.30
2010,11,21,14,42,12.20
2010,11,21,14,43,20.90
2010,11,21,14,44,9.00
2010,11,21,14,45,7.20
2010,11,21,14,46,8.50
2010,11,21,14,47,11.50
2010,11,21,14,48,11.60
2010,11,21,14,49,9.60
2010,11,21,14,50,11.70
2010,11,21,14,51,9.50
2010,11,21,14,52,13.00
2010,11,21,14,53,19.60
2010,11,21,14,54,18.10
2010,11,21,14,55,15.20
2010,11,21,14,56,15.90
2010,11,21,14,57,21.20
2010,11,21,14,58,22.10
2010,11,21,14,59,16.90
2010,11,21,15,00,17.40
2010,11,21,15,01,18.00
2010,11,21,15,02,13.20
2010,11,21,15,03,19.90
2010,11,21,15,04,12.90
2010,11,21,15,05,8.70
2010,11,21,15,06,9.90
2010,11,21,15,07,9.50
2010,11,21,15,08,15.30
2010,11,21,15,09,13.10
2010,11,21,15,10,13.40
2010,11,21,15,11,10.80
2010,11,21,15,12,9.50
2010,11,21,15,13,13.30
2010,11,21,15,14,14.90
2010,11,21,15,15,15.00
2010,11,21,15,16,16.10
2010,11,21,15,17,13.40
2010,11,21,15,18,13.10
2010,11,21,15,19,14.50
2010,11,21,15,20,13.80
2010,11,21,15,21,16.70
2010,11,21,15,22,14.80
2010,11,21,15,23,13.80
2010,11,21,15,24,21.70
2010,11,21,15,25,19.30
2010,11,21,15,26,17.10
2010,11,21,15,27,12.70
2010,11,21,15,28,13.50
2010,11,21,15,29,14.30
2010,11,21,15,30,19.00
2010,11,21,15,31,11.80
2010,11,21,15,32,9.50
2010,11,21,15,33,11.80
2010,11,21,15,34,16.10
2010,11,21,15,35,9.90
2010,11,21,15,36,11.40
2010,11,21,15,37,8.40
2010,11,21,15,38,19.20
2010,11,21,15,39,18.30
2010,11,21,15,40,14.10
2010,11,21,15,41,12.00
2010,11,21,15,42,10.90
2010,11,21,15,43,11.10
2010,11,21,15,44,7.60
2010,11,21,15,45,11.40
2010,11,21,15,46,11.10
2010,11,21,15,47,14.00
2010,11,21,15,48,13.70
2010,11,21,15,49,12.40
2010,11,21,15,50,10.30
2010,11,21,15,51,12.00
2010,11,21,15,52,7.50
2010,11,21,15,53,7.00
2010,11,21,15,54,5.90
2010,11,21,15,55,2.10
2010,11,21,15,56,5.30
2010,11,21,15,57,5.60
2010,11,21,15,58,9.40
2010,11,21,15,59,11.80
2010,11,21,16,00,16.10
2010,11,21,16,01,11.80
2010,11,21,16,02,9.60
2010,11,21,16,03,9.70
2010,11,21,16,04,12.20
2010,11,21,16,05,11.80
2010,11,21,16,06,7.40
2010,11,21,16,07,4.70
2010,11,21,16,08,10.00
2010,11,21,16,09,17.40
2010,11,21,16,10,10.10
2010,11,21,16,11,9.10
2010,11,21,16,12,5.60
2010,11,21,16,13,6.30
2010,11,21,16,14,5.60
2010,11,21,16,15,6.20
2010,11,21,16,16,7.30
2010,11,21,16,17,6.20
2010,11,21,16,18,5.00
2010,11,21,16,19,7.70
2010,11,21,16,20,10.70
2010,11,21,16,21,15.10
2010,11,21,16,22,11.30
2010,11,21,16,23,9.40
2010,11,21,16,24,11.40
2010,11,21,16,25,9.90
2010,11,21,16,26,9.60
2010,11,21,16,27,8.40
2010,11,21,16,28,11.80
2010,11,21,16,29,13.20
2010,11,21,16,30,9.70
2010,11,21,16,31,10.80
2010,11,21,16,32,11.30
2010,11,21,16,33,16.30
2010,11,21,16,34,15.00
2010,11,21,16,35,9.70
2010,11,21,16,36,6.80
2010,11,21,16,37,6.70
2010,11,21,16,38,7.60
2010,11,21,16,39,13.00
2010,11,21,16,40,10.10
2010,11,21,16,41,6.80
2010,11,21,16,42,9.00
2010,11,21,16,43,14.50
2010,11,21,16,44,7.20
2010,11,21,16,45,5.10
2010,11,21,16,46,6.50
2010,11,21,16,47,8.50
2010,11,21,16,48,11.40
2010,11,21,16,49,14.30
2010,11,21,16,50,12.40
2010,11,21,16,51,13.40
2010,11,21,16,52,14.10
2010,11,21,16,53,11.20
2010,11,21,16,54,9.70
2010,11,21,16,55,6.00
2010,11,21,16,56,5.30
2010,11,21,16,57,7.50
2010,11,21,16,58,15.90
2010,11,21,16,59,15.00
2010,11,21,17,00,12.30
2010,11,21,17,01,8.60
2010,11,21,17,02,8.10
2010,11,21,17,03,14.00
2010,11,21,17,04,17.00
2010,11,21,17,05,14.30
2010,11,21,17,06,11.30
2010,11,21,17,07,6.60
2010,11,21,17,08,10.80
2010,11,21,17,09,8.10
2010,11,21,17,10,6.60
2010,11,21,17,11,6.50
2010,11,21,17,12,12.60
2010,11,21,17,13,8.90
2010,11,21,17,14,9.80
2010,11,21,17,15,13.80
2010,11,21,17,16,7.30
2010,11,21,17,17,10.50
2010,11,21,17,18,10.60
2010,11,21,17,19,15.20
2010,11,21,17,20,15.10
2010,11,21,17,21,18.00
2010,11,21,17,22,16.80
2010,11,21,17,23,13.00
2010,11,21,17,24,15.60
2010,11,21,17,25,19.50
2010,11,21,17,26,10.30
2010,11,21,17,27,14.40
2010,11,21,17,28,13.60
2010,11,21,17,29,10.70
2010,11,21,17,30,10.20
2010,11,21,17,31,13.80
2010,11,21,17,32,13.10
2010,11,21,17,33,14.60
2010,11,21,17,34,12.20
2010,11,21,17,35,7.70
2010,11,21,17,36,8.70
2010,11,21,17,37,12.10
2010,11,21,17,38,12.10
2010,11,21,17,39,12.30
2010,11,21,17,40,8.50
2010,11,21,17,41,10.60
2010,11,21,17,42,15.70
2010,11,21,17,43,13.50
2010,11,21,17,44,7.00
2010,11,21,17,45,13.10